Regional Weather Roundup
Issued by NWS

Home | Current Version | Previous Version | Text Only | Print | Product List | Glossary On
Versions: 1 2 3 4 5 6 7 8 9 10 11 12 13 14 15 16 17 18 19 20 21 22 23 24 25 26 27 28 29 30 31 32 33 34 35 36 37 38 39 40 41 42 43 44 45 46 47 48 49 50
000
ASUS43 KLMK 261810
RWRKY
KENTUCKY REGIONAL WEATHER ROUNDUP
NATIONAL WEATHER SERVICE LOUISVILLE KY
200 PM EDT WED APR 26 2017

NOTE "FAIR" INDICATES FEW OR NO CLOUDS BELOW 12,000 FEET
WITH NO SIGNIFICANT WEATHER AND/OR OBSTRUCTIONS TO VISIBILITY.

KYZ001>023-026-027-061>063-070>075-261900-
WESTERN AND SOUTH CENTRAL KENTUCKY

CITY           SKY/WX    TMP DP  RH WIND       PRES   REMARKS
PADUCAH        PTSUNNY   79  62  56 S18G25    29.58F
HENDERSON      MOSUNNY   81  65  58 S16G24    29.60F
OWENSBORO      SUNNY     81  66  60 S17G26    29.62S
HOPKINSVILLE   SUNNY     81  63  54 S14G20    29.66F
BOWLING GREEN  SUNNY     81  62  52 SW16G23   29.68F
GLASGOW        SUNNY     79  58  48 S8G20     29.70R
$$

KYZ024-025-028>034-038-045-046-053-261900-
NORTH CENTRAL KENTUCKY

CITY           SKY/WX    TMP DP  RH WIND       PRES   REMARKS
LOUISVILLE/SDF PTSUNNY   81  62  52 S14       29.64F
LOUISVILLE/LOU MOSUNNY   79  63  57 S15G23    29.65F
FORT KNOX      MOSUNNY   79  63  57 S13G20    29.64F
$$

KYZ035>037-039>044-047>052-055>060-089>105-261900-
NORTHEAST KENTUCKY

CITY           SKY/WX    TMP DP  RH WIND       PRES   REMARKS
LEXINGTON      SUNNY     79  58  48 S14       29.70F
COVINGTON      MOSUNNY   78  61  55 S20G26    29.65F
FRANKFORT      SUNNY     80  59  48 S14G20    29.67F
$$

KYZ054-064>069-076>088-106>120-261900-
SOUTHEAST KENTUCKY

CITY           SKY/WX    TMP DP  RH WIND       PRES   REMARKS
JACKSON        SUNNY     78  56  46 VRB3      29.76F
LONDON         SUNNY     78  55  44 S9        29.75F
SOMERSET       SUNNY     77  54  44 S8        29.73F
MIDDLESBORO    SUNNY     77  57  50 S8        29.78F
MONTICELLO     CLEAR     80  60  50 VRB6      29.73F
$$




USA.gov is the U.S. government's official web portal to all federal, state and local government web resources and services.